Regional Weather Roundup
Issued by NWS New Orleans/Baton Rouge, LA

Home | Current Version | Previous Version | Text Only | Print | Product List | Glossary Off
Versions: 1 2 3 4 5 6 7 8 9 10 11 12 13 14 15 16 17 18 19 20 21 22 23 24 25 26 27 28 29 30 31 32 33 34 35 36 37 38 39 40 41 42 43 44 45 46 47 48 49 50

548
ASUS44 KLIX 260110
RWRLIX
NEW ORLEANS REGIONAL WEATHER ROUNDUP
NATIONAL WEATHER SERVICE NEW ORLEANS LA
700 PM CST TUE NOV 25 2014

NOTE: "FAIR" INDICATES FEW OR NO CLOUDS BELOW 12,000 FEET WITH NO
      SIGNIFICANT WEATHER AND/OR OBSTRUCTIONS TO VISIBILITY.
      SKY/WX - SKY CONDITION AND SIGNIFICANT WEATHER.
      TMP - AIR TEMPERATURE.     DP    - DEWPOINT TEMPERATURE.
      RH  - RELATIVE HUMIDITY.   PRES  - PRESSURE.
      HI  - HEAT INDEX.          WCI   - WIND CHILL INDEX.

*  THESE STATIONS ARE NOT NWS OR FAA STATIONS AND ARE NOT UNDER
   NWS QUALITY CONTROL.

LAZ038-040-048-061>063-065>067-069-260200-
SOUTHEAST LOUISIANA

CITY           SKY/WX    TMP DP  RH WIND       PRES   REMARKS
N.O. AUDUBON     N/A     52  36  53 MISG        N/A
N.O. INTL ARPT CLOUDY    52  32  46 NW13G21   30.20R
N.O. LAKEFRONT CLOUDY    54  36  50 NW17      30.20R
N.O. DOWNTOWN*   N/A     54  30  40 N8G17     30.20R
SLIDELL        CLOUDY    51  34  52 N7        30.19R
BATON ROUGE    PTCLDY    45  33  63 NW3       30.23R
BOOTHVILLE     CLOUDY    55  39  54 VRB5      30.18R
BELLE CHASSE   CLOUDY    54  32  43 VRB7      30.18R
BOGALUSA*        N/A     49  33  53 N5        30.21R
NEW ROADS*       N/A     43  34  71 CALM      30.24R
GONZALES*        N/A     47  33  58 CALM      30.22R
HAMMOND*       CLOUDY    48  32  53 NW6       30.23R
HOUMA*         CLOUDY    50  35  56 NW6       30.21R
PORT FOURCHON* CLEAR     54  36  50 N16       30.22R

$$

MSZ070-080>082-260200-
SOUTHERN MISSISSIPPI

CITY           SKY/WX    TMP DP  RH WIND       PRES   REMARKS
MCCOMB         CLOUDY    46  31  55 NW7       30.21R
GULFPORT       CLOUDY    52  35  52 NW7       30.16R
BILOXI         CLOUDY    53  36  52 N7        30.15F
PASCAGOULA     CLOUDY    53  35  50 NW6       30.16R
STENNIS ARPT*  PTCLDY    50  34  53 NW3       30.21R

$$

COASTAL OBSERVATIONS
LAKE AND NEARSHORE STATIONS

STATION/POSITION TIME  TEMP    WIND        PRES    WAVE
                       AIR SEA DIR/SP/G            HT/PER
                 (UTC) (F)     (DEG/KT/KT) (MB)    (FT/S)
PASCAGOULA       0100   54     340/  5/  7 1020.7
WAVELAND YACHT   0100   52     320/ 10/ 12 1021.3
GRAND ISLE       0100   56 60  340/ 12/ 18 1022.7
SOUTHWEST PASS   0100   57                 1021.1
NEW CANAL        0100   53 55  340/ 10/ 17 1023.1
SHELL BEACH      0100   54 54  330/ 18/ 20 1021.3

OFFSHORE STATIONS

STATION/POSITION TIME  TEMP    WIND        PRES    WAVE
                       AIR SEA DIR/SP/G            HT/PER
                 (UTC) (F)     (DEG/KT/KT) (MB)    (FT/S)
64 S DAUPHIN ISL 0004   59 72  350/ 21/ 25 1020.6    5/ 6

$$




USA.gov is the U.S. government's official web portal to all federal, state and local government web resources and services.